Location: Gloden
(48.4833°N, 15.3167°E)
Time: 21:20:16
(UTC+00:00)

Cosmos 1428 Rocket - Pass Details

Date: 15 December 2019
Orbit: 948 x 988 km, 82.9° (Epoch: 28 January)

Event Time Altitude Azimuth Distance (km) Brightness Sun altitude
Exits shadow 04:17:58 18° 342° (NNW) 2,249 6.1 -22.9°
Maximum altitude 04:22:46 60° 267° (W) 1,121 4.5 -22.2°
Drops below altitude 10° 04:28:55 10° 189° (S) 2,736 6.9 -21.2°
Sets 04:31:27 0° 186° (S) 3,677 7.6 -20.8°
